Powrót do katalogu

NOAA 7 DEB

AktywnySSO
NORAD 24914·DEBRIS·🇺🇸 United States

Wystrzelony Jun 23, 1981 z Vandenberg Space Force Base

Loading…

Następne Przeloty (najbliższe 24 godziny)

TLE

ŚwieżeSource: Space-Track

Epoka: Sep 14, 2026, 09:02 UTC

1 24914U 81059F   26257.37682710  .00000491  00000-0  15870-3 0  9997
2 24914  98.4916 310.2523 0019688 210.4059 149.5991 14.43266970517506

Śledź NOAA 7 DEB w czasie rzeczywistym z AllMySat

Download on the App Store